This is the latest recevied weather packets stored in our database for station/object SP3VBV-2. If no packets are shown the sender has not sent any weather packets the latest 10 day(s).
| Time | Temp. | Humidity | Pressure | Rain* | Wind** | Luminosity | Snow |
|---|---|---|---|---|---|---|---|
| 1778079731 | 23.33° C | 40% | 1004.3 hPa | - | - | - | - |
| 1778079130 | 23.89° C | 42% | 1004.4 hPa | - | - | - | - |
| 1778078531 | 23.33° C | 41% | 1004.5 hPa | - | - | - | - |
| 1778077930 | 22.78° C | 44% | 1004.6 hPa | - | - | - | - |
| 1778077332 | 23.33° C | 42% | 1004.5 hPa | - | - | - | - |
| 1778076730 | 23.33° C | 43% | 1004.6 hPa | - | - | - | - |
| 1778076143 | 23.33° C | 46% | 1004.6 hPa | - | - | - | - |
| 1778075530 | 22.22° C | 44% | 1004.7 hPa | - | - | - | - |
| 1778074930 | 22.22° C | 47% | 1004.6 hPa | - | - | - | - |
| 1778074332 | 22.78° C | 46% | 1004.7 hPa | - | - | - | - |
| 1778073731 | 23.33° C | 46% | 1004.7 hPa | - | - | - | - |
| 1778073130 | 23.33° C | 47% | 1004.7 hPa | - | - | - | - |
| 1778072530 | 23.33° C | 46% | 1004.7 hPa | - | - | - | - |
| 1778071930 | 22.78° C | 46% | 1004.8 hPa | - | - | - | - |
| 1778071332 | 22.22° C | 49% | 1004.7 hPa | - | - | - | - |
| 1778070730 | 22.78° C | 46% | 1004.7 hPa | - | - | - | - |
| 1778070130 | 22.78° C | 46% | 1004.8 hPa | - | - | - | - |
| 1778069530 | 22.22° C | 48% | 1004.8 hPa | - | - | - | - |
| 1778068930 | 22.22° C | 47% | 1004.8 hPa | - | - | - | - |
| 1778068331 | 22.78° C | 48% | 1004.6 hPa | - | - | - | - |
| 1778067730 | 22.22° C | 48% | 1004.5 hPa | - | - | - | - |
| 1778067289 | 22.22° C | 52% | 1004.5 hPa | - | - | - | - |
| 1778066530 | 22.22° C | 53% | 1004.5 hPa | - | - | - | - |
| 1778065930 | 21.67° C | 52% | 1004.6 hPa | - | - | - | - |
| 1778065651 | 21.67° C | 54% | 1004.7 hPa | - | - | - | - |
* Rain since midnight (hover to see other rain measurements)
** Current wind speed in m/s (hover to see current wind gust speed)